METEOR 2-11 DEB

Satellite information

Favourite Embed

Satellite Type and Status

DEBRISIN ORBIT

Key statistics

Satellite METEOR 2-11 DEB at a glance.

Uptime

15137

Days in orbit

Revolutions

≈ 14.0

Per day

Orbit

LEO

Low Earth Orbit

Inclination

82.5

Latest

Satellite identification and parameters

Extended collection of information and parameters for METEOR 2-11 DEB.

Object identification

Identified? True

Debris? True

Object name: METEOR 2-11 DEB

International designator: 1984-072AB

Object number (NORAD): 60006

Object ID (CCSDS): 60006

Country: COMMONWEALTH OF INDEPENDENT STATES (CIS)

Current information (Y/N): Y

RCS size: SMALL

Orbital parameters

Period: 102.99 minutes

Inclination: 82.5266 deg

SMA: 7278.214 km

Apoapsis: 909.977 km

Periapsis: 890.181 km

RAAN: 164.47 deg

Eccentricy: 0.00135995

Argument of periapsis: 93.9352 deg

Mean anomaly: 266.3371 deg

Mean motion: 13.98187734 rev/day

Mean motion (dot): 0.00004115 rev/day2

B* drag term: 0.0028778956 1/REarth

Two-line elements (TLE)

Creation date: Dec. 8, 2025, 3:46 a.m.

Reference frame: TEME

Reference center: EARTH

Epoch: Dec. 7, 2025, 6:51 p.m. UTC

TLE line 0: 0 METEOR 2-11 DEB

TLE line 1: 1 60006U 84072AB 25341.78571577 .00004115 00000-0 28779-2 0 9991

TLE line 2: 2 60006 82.5266 164.4700 0013599 93.9352 266.3371 13.98187734403942

Live tracking on map

Real-time ground track for satellite METEOR 2-11 DEB.

In-orbit conjunctions

A list of the most updated potential collisions computed for object METEOR 2-11 DEB.

Target Orbit TCA Probability of collision Miss distance Type
OBJECT A LEO 2025-04-10 21:02:31 0.0001099949 125.0 (m) UNKNOWN
FENGYUN 1C DEB SSO 2024-10-14 05:55:08 0.0002933934 273.0 (m) DEBRIS
IRIDIUM 33 DEB LEO 2024-09-25 02:52:35 0.0001428657 469.0 (m) DEBRIS

Associated space launch

Second generation soviet meteorological satellite

METEOR 2-11 DEB was lifted into orbit during the mission ‘Tsiklon-3 | Meteor-2 11’, on board a Tsiklon-3 space rocket.

The launch took place on July 5, 1984, 3:35 a.m. from 32/2.

For more information about the launch, click the button.

Launch to space Tsiklon-3 | Meteor-2 11
Tsiklon-3 | Meteor-2 11

Agency: N/A

Status: Launch Successful

Launch date: July 5, 1984, 3:35 a.m. UTC

Rocket: Tsiklon-3

Launch pad: 32/2

Location: Plesetsk Cosmodrome, Russian Federation

...

Latest news about this satellite

There are no fresh news available about this satellite. Check back as we update our databases every day.


Newsletter sign-up

Weekly statistics, charts and insights to help you stay on top of the space industry.